When you browse on this site, cookies collect data to enhance your experience and personalize the content and advertising you see.
Visit our Privacy Policy to learn more. By continuing to use the site, you agree to this use of cookies and data.
  • Em Portugal
  • Lista de países
  • Para 7 dias
  • Temperatura da água
  • Mapas de satélite
  • Mapa do tempo
  • Widgets de tempo
  • user-avatar
    Iniciar Sessão

    Previsão horária em Bezymyannoe

    Hoje, 26 Abril, Sexta-feira

    Tempo Temperatura Precipitação Vento Pressão Humidade
    00:00 +17°C° 0 mm 3 m/s 756 mmHg 54%
    01:00 +16°C° 0 mm 3 m/s 755 mmHg 56%
    02:00 +16°C° 0 mm 3 m/s 755 mmHg 59%
    03:00 +14°C° 0 mm 3 m/s 755 mmHg 61%
    04:00 +14°C° 0 mm 3 m/s 756 mmHg 62%
    05:00 +14°C° 0 mm 3 m/s 756 mmHg 63%
    06:00 +14°C° 0 mm 3 m/s 756 mmHg 64%
    07:00 +17°C° 0 mm 3 m/s 756 mmHg 58%
    08:00 +18°C° 0 mm 3 m/s 756 mmHg 52%
    09:00 +20°C° 0 mm 3 m/s 756 mmHg 45%
    10:00 +21°C° 0 mm 3 m/s 757 mmHg 42%
    11:00 +22°C° 0 mm 4 m/s 757 mmHg 38%
    12:00 +23°C° 0 mm 4 m/s 757 mmHg 34%
    13:00 +24°C° 0 mm 3 m/s 757 mmHg 34%
    14:00 +24°C° 0 mm 3 m/s 757 mmHg 33%
    15:00 +24°C° 0 mm 3 m/s 757 mmHg 33%
    16:00 +22°C° 0 mm 3 m/s 757 mmHg 36%
    17:00 +22°C° 0 mm 3 m/s 757 mmHg 39%
    18:00 +21°C° 0 mm 2 m/s 757 mmHg 42%
    19:00 +20°C° 0 mm 3 m/s 757 mmHg 47%
    20:00 +18°C° 0 mm 3 m/s 757 mmHg 51%
    21:00 +17°C° 0 mm 3 m/s 757 mmHg 56%
    22:00 +16°C° 0 mm 3 m/s 757 mmHg 55%
    23:00 +16°C° 0 mm 3 m/s 757 mmHg 54%

    Amanhã, 27 Abril, Sábado

    Tempo Temperatura Precipitação Vento Pressão Humidade
    00:00 +16°C° 0 mm 3 m/s 757 mmHg 54%
    01:00 +14°C° 0 mm 3 m/s 757 mmHg 55%
    02:00 +14°C° 0 mm 3 m/s 757 mmHg 57%
    03:00 +13°C° 0 mm 3 m/s 757 mmHg 59%
    04:00 +13°C° 0 mm 3 m/s 757 mmHg 61%
    05:00 +13°C° 0 mm 3 m/s 757 mmHg 62%
    06:00 +13°C° 0 mm 4 m/s 757 mmHg 64%
    07:00 +14°C° 0 mm 4 m/s 756 mmHg 64%
    08:00 +15°C° 0 mm 4 m/s 756 mmHg 63%
    09:00 +17°C° 0 mm 4 m/s 756 mmHg 63%
    10:00 +18°C° 0 mm 3 m/s 756 mmHg 58%
    11:00 +20°C° 0 mm 3 m/s 756 mmHg 53%
    12:00 +21°C° 0 mm 2 m/s 755 mmHg 48%
    13:00 +21°C° 0.3 mm 3 m/s 755 mmHg 47%
    14:00 +21°C° 0.3 mm 3 m/s 754 mmHg 46%
    15:00 +22°C° 0.3 mm 4 m/s 754 mmHg 44%
    16:00 +22°C° 0 mm 3 m/s 753 mmHg 46%
    17:00 +21°C° 0 mm 2 m/s 753 mmHg 47%
    18:00 +21°C° 0 mm 2 m/s 753 mmHg 48%
    19:00 +20°C° 0 mm 2 m/s 752 mmHg 51%
    20:00 +19°C° 0 mm 2 m/s 752 mmHg 54%
    21:00 +18°C° 0 mm 1 m/s 752 mmHg 57%
    22:00 +18°C° 0 mm 1 m/s 752 mmHg 59%
    23:00 +16°C° 0 mm 1 m/s 752 mmHg 61%

    Depois de amanhã, 28 Abril, Domingo

    Tempo Temperatura Precipitação Vento Pressão Humidade
    00:00 +16°C° 0 mm 1 m/s 752 mmHg 63%
    01:00 +15°C° 0.1 mm 2 m/s 751 mmHg 66%
    02:00 +15°C° 0.1 mm 2 m/s 751 mmHg 69%
    03:00 +14°C° 0.1 mm 2 m/s 751 mmHg 71%
    04:00 +13°C° 0.1 mm 3 m/s 750 mmHg 71%
    05:00 +14°C° 0.1 mm 3 m/s 750 mmHg 70%
    06:00 +14°C° 0.1 mm 3 m/s 750 mmHg 70%
    07:00 +15°C° 0 mm 4 m/s 750 mmHg 65%
    08:00 +18°C° 0 mm 4 m/s 750 mmHg 59%
    09:00 +20°C° 0 mm 5 m/s 749 mmHg 53%
    10:00 +21°C° 0 mm 6 m/s 749 mmHg 48%
    11:00 +22°C° 0 mm 6 m/s 749 mmHg 43%
    12:00 +23°C° 0 mm 7 m/s 748 mmHg 38%
    13:00 +23°C° 0 mm 6 m/s 748 mmHg 39%
    14:00 +22°C° 0 mm 6 m/s 748 mmHg 41%
    15:00 +22°C° 0 mm 6 m/s 747 mmHg 42%
    16:00 +21°C° 0.1 mm 6 m/s 748 mmHg 46%
    17:00 +20°C° 0.1 mm 5 m/s 748 mmHg 49%
    18:00 +20°C° 0.1 mm 5 m/s 748 mmHg 53%
    19:00 +15°C° 1.1 mm 6 m/s 748 mmHg 63%
    20:00 +11°C° 1.1 mm 6 m/s 749 mmHg 73%
    21:00 +8°C° 1.1 mm 7 m/s 749 mmHg 82%
    22:00 +6°C° 2.2 mm 7 m/s 749 mmHg 82%
    23:00 +5°C° 2.2 mm 7 m/s 750 mmHg 81%

    29 Abril, Segunda-feira

    Tempo Temperatura Precipitação Vento Pressão Humidade
    00:00 +4°C° 2.2 mm 7 m/s 750 mmHg 81%
    01:00 +4°C° 0.2 mm 7 m/s 750 mmHg 78%
    02:00 +4°C° 0.2 mm 7 m/s 751 mmHg 75%
    03:00 +4°C° 0.2 mm 7 m/s 751 mmHg 71%
    04:00 +3°C° 0 mm 7 m/s 752 mmHg 70%
    05:00 +3°C° 0 mm 7 m/s 752 mmHg 69%
    06:00 +1°C° 0 mm 8 m/s 753 mmHg 67%
    07:00 +2°C° 0 mm 8 m/s 754 mmHg 60%
    08:00 +4°C° 0 mm 8 m/s 754 mmHg 53%
    09:00 +5°C° 0 mm 8 m/s 755 mmHg 45%
    10:00 +6°C° 0 mm 8 m/s 755 mmHg 43%
    11:00 +8°C° 0 mm 7 m/s 755 mmHg 40%
    12:00 +9°C° 0 mm 7 m/s 755 mmHg 37%
    13:00 +9°C° 0 mm 6 m/s 755 mmHg 37%
    14:00 +9°C° 0 mm 6 m/s 755 mmHg 37%
    15:00 +9°C° 0 mm 6 m/s 756 mmHg 37%
    16:00 +9°C° 0 mm 6 m/s 756 mmHg 38%
    17:00 +8°C° 0 mm 5 m/s 756 mmHg 39%
    18:00 +8°C° 0 mm 5 m/s 756 mmHg 41%
    19:00 +7°C° 0 mm 4 m/s 757 mmHg 42%
    20:00 +6°C° 0 mm 4 m/s 757 mmHg 44%
    21:00 +5°C° 0 mm 3 m/s 758 mmHg 46%
    22:00 +4°C° 0 mm 3 m/s 758 mmHg 48%
    23:00 +3°C° 0 mm 3 m/s 758 mmHg 50%

    30 Abril, Terça-feira

    Tempo Temperatura Precipitação Vento Pressão Humidade
    00:00 +3°C° 0 mm 3 m/s 758 mmHg 52%
    01:00 +3°C° 0 mm 2 m/s 758 mmHg 53%
    02:00 +3°C° 0 mm 2 m/s 759 mmHg 54%
    03:00 +3°C° 0 mm 1 m/s 759 mmHg 55%
    04:00 +2°C° 0 mm 2 m/s 759 mmHg 55%
    05:00 +2°C° 0 mm 2 m/s 759 mmHg 54%
    06:00 +3°C° 0 mm 2 m/s 759 mmHg 54%
    07:00 +4°C° 0 mm 2 m/s 759 mmHg 48%
    08:00 +5°C° 0 mm 2 m/s 759 mmHg 43%
    09:00 +5°C° 0 mm 3 m/s 759 mmHg 38%
    10:00 +7°C° 0 mm 2 m/s 759 mmHg 36%
    11:00 +7°C° 0 mm 2 m/s 759 mmHg 34%
    12:00 +8°C° 0 mm 2 m/s 758 mmHg 33%
    13:00 +10°C° 0 mm 1 m/s 758 mmHg 32%
    14:00 +10°C° 0 mm 1 m/s 758 mmHg 31%
    15:00 +10°C° 0 mm 0 m/s 758 mmHg 30%
    16:00 +10°C° 0 mm 0 m/s 757 mmHg 31%
    17:00 +9°C° 0 mm 0 m/s 757 mmHg 31%
    18:00 +9°C° 0 mm 0 m/s 757 mmHg 32%
    19:00 +9°C° 0 mm 1 m/s 757 mmHg 35%
    20:00 +9°C° 0 mm 1 m/s 757 mmHg 38%
    21:00 +8°C° 0 mm 1 m/s 757 mmHg 41%
    22:00 +6°C° 0 mm 2 m/s 757 mmHg 44%
    23:00 +6°C° 0 mm 2 m/s 757 mmHg 46%

    1 Maio, Quarta-feira

    Tempo Temperatura Precipitação Vento Pressão Humidade
    00:00 +5°C° 0 mm 2 m/s 756 mmHg 49%
    01:00 +5°C° 0 mm 2 m/s 756 mmHg 53%
    02:00 +5°C° 0 mm 2 m/s 756 mmHg 56%
    03:00 +5°C° 0 mm 2 m/s 756 mmHg 59%
    04:00 +5°C° 0 mm 3 m/s 756 mmHg 60%
    05:00 +5°C° 0 mm 3 m/s 755 mmHg 61%
    06:00 +5°C° 0 mm 3 m/s 755 mmHg 62%
    07:00 +7°C° 0 mm 3 m/s 755 mmHg 57%
    08:00 +8°C° 0 mm 3 m/s 756 mmHg 53%
    09:00 +9°C° 0 mm 3 m/s 756 mmHg 48%
    10:00 +10°C° 0 mm 3 m/s 755 mmHg 48%
    11:00 +11°C° 0 mm 4 m/s 755 mmHg 48%
    12:00 +12°C° 0 mm 4 m/s 755 mmHg 48%
    13:00 +11°C° 0 mm 4 m/s 755 mmHg 49%
    14:00 +11°C° 0 mm 4 m/s 755 mmHg 50%
    15:00 +10°C° 0 mm 5 m/s 754 mmHg 52%
    16:00 +10°C° 0 mm 5 m/s 754 mmHg 54%
    17:00 +9°C° 0 mm 5 m/s 754 mmHg 57%
    18:00 +9°C° 0 mm 5 m/s 754 mmHg 59%
    19:00 +8°C° 0 mm 4 m/s 754 mmHg 64%
    20:00 +7°C° 0 mm 4 m/s 754 mmHg 69%
    21:00 +7°C° 0 mm 3 m/s 754 mmHg 74%
    22:00 +5°C° 0 mm 3 m/s 754 mmHg 77%
    23:00 +5°C° 0 mm 3 m/s 754 mmHg 79%
    Mostrar mais